Regional Weather Roundup
Issued by NWS

Home | Current Version | Previous Version | Graphics & Text | Print | Product List | Glossary On
Versions: 1 2 3 4 5 6 7 8 9 10 11 12 13 14 15 16 17 18 19 20 21 22 23 24 25 26 27 28 29 30 31 32 33 34 35 36 37 38 39 40 41 42 43 44 45 46 47 48 49 50
000
ASUS44 KMEG 191010
RWRTN
TENNESSEE HOURLY STATE WEATHER ROUNDUP
NATIONAL WEATHER SERVICE MEMPHIS TN
400 AM CST FRI JAN 19 2018

TNZ002-004-019-021-049-052-054-088>092-191100-
WEST TENNESSEE

CITY           SKY/WX    TMP DP  RH WIND       PRES   REMARKS
MEMPHIS INTL   FAIR      23  17  78 S6        30.30F WCI  16
NWS MEMPHIS      N/A     23 N/A N/A MISG        N/A
JACKSON        FAIR      22  12  65 SW9       30.30F WCI  12
DYERSBURG      FAIR      23  16  74 S6        30.28F WCI  16
SOMERVILLE     CLEAR     25  16  68 S6        30.29F WCI  18
COVINGTON      CLEAR     21  16  79 S6        30.29F WCI  14
UNION CITY     CLEAR     16  10  79 S8        30.27F WCI   5
BOLIVAR        CLEAR     21  12  68 CALM      30.30S
PARIS          CLEAR     19   9  63 S7        30.26F WCI  10
HUNTINGDON     CLEAR     23  10  58 SW3       30.27F
LEXINGTON      CLEAR     21  14  73 S6        30.31S WCI  14
SELMER         CLEAR     21  12  68 SW3       30.31S
SAVANNAH       CLEAR     21  16  79 S5        30.32S WCI  15
$$

TNZ008-025-027-028-033-062-065-066-191100-
NORTH MIDDLE TENNESSEE

CITY           SKY/WX    TMP DP  RH WIND       PRES   REMARKS
NASHVILLE      FAIR      21  13  71 S8        30.31S WCI  11
PORTLAND       CLEAR     19  14  79 S9        30.27S WCI   9
CLARKSVILLE    FAIR      19  10  68 S3        30.28S
SMYRNA         FAIR      16  13  88 CALM      30.33R
COOKEVILLE     CLEAR     12  10  92 CALM      30.29S
GALLATIN       CLEAR     16  12  86 CALM      30.33S
CROSSVILLE     FAIR      16   7  67 CALM      30.25S
$$

TNZ061-075-076-078-094-096-097-191100-
SOUTH MIDDLE TENNESSEE

CITY           SKY/WX    TMP DP  RH WIND       PRES   REMARKS
FAYETTEVILLE   CLEAR     19  14  79 S5        30.31S WCI  13
TULLAHOMA      CLEAR     12  10  92 CALM      30.30S
WINCHESTER     CLEAR     12  10  92 CALM      30.32F
MCMINNVILLE    CLEAR     12  10  92 CALM      30.30S
COLUMBIA       CLEAR     21  14  73 SW6       30.29F WCI  14
SHELBYVILLE    CLEAR     14  12  92 E5        30.31F WCI   6
$$

TNZ017-018-042-046-047-191100-
NORTHEAST TENNESSEE

CITY           SKY/WX    TMP DP  RH WIND       PRES   REMARKS
TRI CITIES     FAIR      11   9  92 CALM      30.29S
ELIZABETHTON   FAIR      12   9  85 CALM      30.29S
$$

TNZ012-013-036-069-073-074-191100-
CENTRAL EAST TENNESSEE

CITY           SKY/WX    TMP DP  RH WIND       PRES   REMARKS
KNOXVILLE      FAIR      18  14  84 CALM      30.30F
OAK RIDGE      FAIR      14  12  92 CALM      30.33S
GATLINBURG     CLEAR     12  10  92 CALM      30.30F
MORRISTOWN     CLEAR     16  12  86 NE3       30.28F
JACKSBORO      CLEAR     12  10  92 CALM      30.33S
$$

TNZ083-085-099-191100-
SOUTHEAST TENNESSEE

CITY           SKY/WX    TMP DP  RH WIND       PRES   REMARKS
CHATTANOOGA    FAIR      19  14  81 CALM      30.34R
DAYTON         SUNNY     14  14 100 CALM      30.33R
$$

SKY/WX REPORTED AS FAIR MEANS FEW OR NO CLOUDS BELOW
12 THOUSAND FEET.




USA.gov is the U.S. government's official web portal to all federal, state and local government web resources and services.